This is the latest recevied weather packets stored in our database for station/object MB7UUE. If no packets are shown the sender has not sent any weather packets the latest 10 day(s).
| Time | Temp. | Humidity | Pressure | Rain* | Wind** | Luminosity | Snow |
|---|---|---|---|---|---|---|---|
| 1777944148 | 11.67° C | 82% | 1014 hPa | 0 mm | - | - | - |
| 1777943009 | 12.22° C | 82% | 1013.9 hPa | 0 mm | - | - | - |
| 1777941868 | 12.22° C | 82% | 1014.1 hPa | 0 mm | - | - | - |
| 1777940728 | 12.22° C | 82% | 1014.2 hPa | 0 mm | - | - | - |
| 1777939588 | 12.22° C | 82% | 1014.4 hPa | 0 mm | - | - | - |
| 1777938446 | 12.22° C | 82% | 1014.5 hPa | 0 mm | - | - | - |
| 1777937307 | 12.22° C | 82% | 1014.5 hPa | 0 mm | - | - | - |
| 1777936166 | 12.78° C | 82% | 1014.6 hPa | 0 mm | - | - | - |
| 1777935026 | 12.78° C | 82% | 1014.5 hPa | 0 mm | - | - | - |
| 1777933887 | 12.78° C | 82% | 1014.5 hPa | 0 mm | - | - | - |
| 1777932745 | 13.33° C | 81% | 1014.7 hPa | 0 mm | - | - | - |
| 1777931606 | 13.33° C | 81% | 1014.7 hPa | 0 mm | - | - | - |
| 1777930467 | 13.89° C | 80% | 1014.5 hPa | 0 mm | - | - | - |
| 1777929326 | 13.89° C | 79% | 1014.5 hPa | 0 mm | - | - | - |
| 1777928186 | 13.89° C | 79% | 1014.5 hPa | 0 mm | - | - | - |
| 1777927047 | 14.44° C | 78% | 1014.5 hPa | 0 mm | - | - | - |
| 1777925906 | 14.44° C | 78% | 1014.5 hPa | 0 mm | - | - | - |
| 1777924767 | 14.44° C | 77% | 1014.5 hPa | 0 mm | - | - | - |
| 1777923626 | 14.44° C | 76% | 1014.3 hPa | 0 mm | - | - | - |
| 1777922487 | 14.44° C | 76% | 1014.1 hPa | 0 mm | - | - | - |
| 1777921346 | 15° C | 75% | 1014 hPa | 0 mm | - | - | - |
| 1777920206 | 15.56° C | 74% | 1014 hPa | 0 mm | - | - | - |
| 1777919067 | 15.56° C | 73% | 1014 hPa | 0 mm | - | - | - |
| 1777917926 | 15.56° C | 72% | 1013.9 hPa | 0 mm | - | - | - |
| 1777916787 | 15° C | 71% | 1013.9 hPa | 0 mm | - | - | - |
* Rain latest hour (hover to see other rain measurements)
** Current wind speed in m/s (hover to see current wind gust speed)